FHY171 EPKK-EPWA

Flight info

Callsign FHY171
Flight time 0h 32m
Altitude 23000
Route POBOK M985 KOTEK M866 LOGDA
Aircraft A320/M-SDE3FGHIRWY/LB1

Departure

Time 2026-05-05 20:10
Airport Kraków John Paul II International Airport (EPKK)

Arrival

Time 2026-05-05 20:42
Airport Warsaw Chopin Airport (EPWA)
Time Latitude Longitude Altitude Speed Heading
2026-05-05 19:27 50.07588 19.80162 801 ft 0 kts 348°
2026-05-05 20:06 50.07595 19.80160 801 ft 0 kts 348°
2026-05-05 20:06 50.07606 19.80156 801 ft 3 kts 348°
2026-05-05 20:06 50.07634 19.80168 801 ft 5 kts 53°
2026-05-05 20:07 50.07647 19.80228 801 ft 6 kts 77°
2026-05-05 20:07 50.07659 19.80307 801 ft 8 kts 77°
2026-05-05 20:07 50.07693 19.80379 801 ft 9 kts 15°
2026-05-05 20:07 50.07762 19.80363 801 ft 10 kts 348°
2026-05-05 20:08 50.07831 19.80340 801 ft 4 kts 347°
2026-05-05 20:08 50.07833 19.80339 801 ft 0 kts 347°
2026-05-05 20:09 50.07851 19.80333 801 ft 7 kts 347°
2026-05-05 20:09 50.07932 19.80305 801 ft 13 kts 348°
2026-05-05 20:09 50.08004 19.80257 801 ft 10 kts 306°
2026-05-05 20:09 50.08002 19.80145 801 ft 11 kts 256°
2026-05-05 20:10 50.07975 19.79956 801 ft 37 kts 256°
2026-05-05 20:10 50.07862 19.79135 801 ft 112 kts 256°
2026-05-05 20:10 50.07654 19.77622 846 ft 166 kts 256°
2026-05-05 20:10 50.07437 19.75874 1543 ft 164 kts 257°
2026-05-05 20:11 50.07253 19.74186 2327 ft 163 kts 256°
2026-05-05 20:11 50.07030 19.72370 2840 ft 177 kts 253°
2026-05-05 20:11 50.06750 19.70447 3352 ft 191 kts 253°
2026-05-05 20:11 50.06448 19.68299 3767 ft 215 kts 257°
2026-05-05 20:12 50.06592 19.65884 4249 ft 244 kts 287°
2026-05-05 20:12 50.07628 19.63655 4946 ft 267 kts 319°
2026-05-05 20:12 50.09376 19.62409 5554 ft 290 kts 346°
2026-05-05 20:12 50.11402 19.61743 6146 ft 302 kts 348°
2026-05-05 20:13 50.13495 19.61418 7041 ft 309 kts
2026-05-05 20:13 50.15446 19.62555 8037 ft 307 kts 38°
2026-05-05 20:13 50.17067 19.64686 8996 ft 307 kts 47°
2026-05-05 20:13 50.18606 19.67019 9789 ft 314 kts 47°
2026-05-05 20:14 50.20196 19.69364 10531 ft 323 kts 46°
2026-05-05 20:14 50.21898 19.71767 11014 ft 341 kts 45°
2026-05-05 20:14 50.23726 19.74284 11441 ft 360 kts 44°
2026-05-05 20:14 50.25670 19.76932 12052 ft 372 kts 44°
2026-05-05 20:15 50.27611 19.79569 12875 ft 375 kts 44°
2026-05-05 20:15 50.29581 19.82250 13721 ft 378 kts 44°
2026-05-05 20:15 50.31559 19.84950 14519 ft 381 kts 44°
2026-05-05 20:15 50.33563 19.87692 15276 ft 385 kts 44°
2026-05-05 20:16 50.35554 19.90418 15993 ft 390 kts 44°
2026-05-05 20:16 50.37624 19.93254 16741 ft 393 kts 44°
2026-05-05 20:16 50.39669 19.96059 17485 ft 396 kts 44°
2026-05-05 20:16 50.41729 19.98891 18193 ft 399 kts 44°
2026-05-05 20:17 50.43818 20.01768 18863 ft 402 kts 44°
2026-05-05 20:17 50.45921 20.04668 19545 ft 405 kts 44°
2026-05-05 20:17 50.48045 20.07595 20226 ft 408 kts 44°
2026-05-05 20:17 50.50178 20.10543 20885 ft 410 kts 44°
2026-05-05 20:18 50.52306 20.13486 21545 ft 412 kts 44°
2026-05-05 20:18 50.54464 20.16474 22170 ft 415 kts 43°
2026-05-05 20:18 50.56698 20.19438 22628 ft 419 kts 38°
2026-05-05 20:18 50.59177 20.21887 22807 ft 420 kts 29°
2026-05-05 20:19 50.61841 20.23666 22804 ft 419 kts 20°
2026-05-05 20:19 50.64602 20.25154 22812 ft 418 kts 21°
2026-05-05 20:19 50.67315 20.26835 22813 ft 417 kts 24°
2026-05-05 20:19 50.69985 20.28616 22812 ft 418 kts 24°
2026-05-05 20:20 50.72646 20.30431 22811 ft 418 kts 25°
2026-05-05 20:20 50.75295 20.32253 22809 ft 418 kts 25°
2026-05-05 20:20 50.77957 20.34088 22807 ft 418 kts 25°
2026-05-05 20:20 50.80650 20.35949 22808 ft 418 kts 25°
2026-05-05 20:21 50.83284 20.37768 22813 ft 419 kts 25°
2026-05-05 20:21 50.85946 20.39611 22817 ft 419 kts 25°
2026-05-05 20:21 50.88634 20.41472 22818 ft 419 kts 25°
2026-05-05 20:21 50.91310 20.43325 22818 ft 419 kts 25°
2026-05-05 20:22 50.93962 20.45164 22821 ft 420 kts 25°
2026-05-05 20:22 50.96632 20.47017 22817 ft 419 kts 25°
2026-05-05 20:22 50.99325 20.48888 22766 ft 420 kts 25°
2026-05-05 20:22 51.02010 20.50756 22490 ft 417 kts 25°
2026-05-05 20:23 51.04628 20.52583 22191 ft 416 kts 25°
2026-05-05 20:23 51.07296 20.54449 21913 ft 414 kts 25°
2026-05-05 20:23 51.09902 20.56275 21555 ft 414 kts 25°
2026-05-05 20:23 51.12547 20.58126 21112 ft 411 kts 25°
2026-05-05 20:24 51.15144 20.59942 20639 ft 408 kts 25°
2026-05-05 20:24 51.17731 20.61757 20160 ft 405 kts 25°
2026-05-05 20:24 51.20302 20.63568 19677 ft 402 kts 25°
2026-05-05 20:24 51.22831 20.65351 19200 ft 400 kts 26°
2026-05-05 20:25 51.25358 20.67144 18801 ft 394 kts 26°
2026-05-05 20:25 51.27825 20.68870 18738 ft 385 kts 24°
2026-05-05 20:25 51.30357 20.70379 18734 ft 390 kts 20°
2026-05-05 20:25 51.32907 20.71759 18345 ft 391 kts 20°
2026-05-05 20:26 51.35488 20.73127 17855 ft 389 kts 20°
2026-05-05 20:26 51.38043 20.74480 17371 ft 386 kts 20°
2026-05-05 20:26 51.40559 20.75822 16904 ft 382 kts 20°
2026-05-05 20:26 51.43080 20.77173 16455 ft 379 kts 20°
2026-05-05 20:27 51.45575 20.78514 16008 ft 376 kts 20°
2026-05-05 20:27 51.48011 20.79825 15568 ft 373 kts 20°
2026-05-05 20:27 51.50475 20.81149 15129 ft 370 kts 20°
2026-05-05 20:27 51.52880 20.82443 14706 ft 368 kts 20°
2026-05-05 20:28 51.55301 20.83749 14274 ft 365 kts 20°
2026-05-05 20:28 51.57713 20.85053 13837 ft 364 kts 20°
2026-05-05 20:28 51.60102 20.86347 13393 ft 362 kts 20°
2026-05-05 20:28 51.62472 20.87633 12959 ft 360 kts 20°
2026-05-05 20:29 51.64826 20.88912 12549 ft 357 kts 20°
2026-05-05 20:29 51.67180 20.90190 12140 ft 355 kts 20°
2026-05-05 20:29 51.69487 20.91435 11734 ft 352 kts 19°
2026-05-05 20:29 51.71814 20.92657 11546 ft 341 kts 19°
2026-05-05 20:30 51.74018 20.93804 11461 ft 328 kts 19°
2026-05-05 20:30 51.76165 20.94898 11339 ft 316 kts 14°
2026-05-05 20:30 51.78307 20.95086 11007 ft 307 kts 347°
2026-05-05 20:30 51.80260 20.93865 10696 ft 298 kts 330°
2026-05-05 20:31 51.82067 20.92291 10370 ft 296 kts 329°
2026-05-05 20:31 51.83896 20.90696 10023 ft 295 kts 330°
2026-05-05 20:31 51.85700 20.89156 9706 ft 293 kts 330°
2026-05-05 20:31 51.87500 20.87644 9387 ft 291 kts 330°
2026-05-05 20:32 51.89281 20.86157 9065 ft 289 kts 330°
2026-05-05 20:32 51.91067 20.84668 8748 ft 286 kts 330°
2026-05-05 20:32 51.92831 20.83198 8442 ft 284 kts 330°
2026-05-05 20:32 51.94566 20.81752 8210 ft 278 kts 330°
2026-05-05 20:33 51.96241 20.80384 8162 ft 265 kts 334°
2026-05-05 20:33 51.98043 20.79860 8040 ft 261 kts
2026-05-05 20:33 51.99662 20.81047 7798 ft 260 kts 47°
2026-05-05 20:33 52.00617 20.83483 7575 ft 254 kts 71°
2026-05-05 20:34 52.01308 20.86131 7353 ft 254 kts 70°
2026-05-05 20:34 52.02036 20.88752 7115 ft 254 kts 70°
2026-05-05 20:34 52.02431 20.91504 6765 ft 249 kts 102°
2026-05-05 20:34 52.01813 20.93992 6499 ft 235 kts 138°
2026-05-05 20:35 52.00555 20.95523 6267 ft 224 kts 161°
2026-05-05 20:35 51.99154 20.96662 6063 ft 223 kts 160°
2026-05-05 20:35 51.97774 20.97809 5830 ft 223 kts 160°
2026-05-05 20:35 51.96395 20.98989 5588 ft 224 kts 159°
2026-05-05 20:36 51.95036 21.00169 5354 ft 223 kts 158°
2026-05-05 20:36 51.93658 21.01382 5097 ft 224 kts 155°
2026-05-05 20:36 51.92559 21.03168 4759 ft 236 kts 120°
2026-05-05 20:36 51.92358 21.05795 4378 ft 246 kts 79°
2026-05-05 20:37 51.93211 21.08208 3947 ft 251 kts 41°
2026-05-05 20:37 51.94189 21.09193 3660 ft 250 kts 18°
2026-05-05 20:37 51.96425 21.09534 3386 ft 238 kts 359°
2026-05-05 20:37 51.98068 21.09621 3170 ft 233 kts
2026-05-05 20:38 51.99667 21.09785 3049 ft 223 kts
2026-05-05 20:38 52.01150 21.09746 3016 ft 206 kts 345°
2026-05-05 20:38 52.02492 21.08984 3052 ft 201 kts 333°
2026-05-05 20:38 52.03730 21.07976 2856 ft 196 kts 329°
2026-05-05 20:39 52.04901 21.06933 2697 ft 188 kts 329°
2026-05-05 20:39 52.06029 21.05936 2456 ft 179 kts 329°
2026-05-05 20:39 52.07077 21.05026 2196 ft 165 kts 329°
2026-05-05 20:39 52.08050 21.04184 1947 ft 152 kts 329°
2026-05-05 20:40 52.08942 21.03406 1725 ft 140 kts 328°
2026-05-05 20:40 52.09793 21.02659 1562 ft 139 kts 329°
2026-05-05 20:40 52.10638 21.01897 1399 ft 138 kts 328°
2026-05-05 20:40 52.11481 21.01123 1210 ft 138 kts 331°
2026-05-05 20:41 52.12333 21.00404 1022 ft 138 kts 331°
2026-05-05 20:41 52.13171 20.99659 845 ft 139 kts 330°
2026-05-05 20:41 52.14032 20.98923 639 ft 139 kts 332°
2026-05-05 20:41 52.14881 20.98180 503 ft 140 kts 332°
2026-05-05 20:42 52.15732 20.97442 354 ft 138 kts 332°
2026-05-05 20:42 52.16488 20.96795 334 ft 102 kts 333°
2026-05-05 20:42 52.16978 20.96436 333 ft 53 kts 336°
2026-05-05 20:42 52.17223 20.96257 337 ft 28 kts 335°
2026-05-05 20:43 52.17408 20.96172 337 ft 27 kts 354°
2026-05-05 20:43 52.17558 20.96182 337 ft 13 kts
2026-05-05 20:43 52.17611 20.96206 336 ft 7 kts 30°
2026-05-05 20:43 52.17623 20.96257 335 ft 4 kts 92°